Location: *
(44.1392°N, 4.8079°E)
Time: 08:02:12
(UTC+00:00)

Helios 1B rocket - Pass Details

Date: 21 June 2021
Orbit: 573 x 583 km, 98.2° (Epoch: 02 August)

Event Time Altitude Azimuth Distance (km) Brightness Sun altitude
Rises 00:52:20 0° 23° (NNE) 2,796 7.5 -20.6°
Reaches altitude 10° 00:54:42 10° 34° (NE) 1,891 6.1 -20.4°
Maximum altitude 00:58:20 30° 97° (E) 1,036 3.8 -20.2°
Enters shadow 00:59:38 25° 131° (SE) 1,179 3.8 -20.2°
